[[{"header":{"parameterUnit":"m.s-1","parameterCategory":1,"la1":30.2992,"la2":30.254,"lo1":-89.0895,"lo2":-89.0443,"dy":0.0025,"dx":0.0025,"nx":19,"ny":19,"refTime":"2026-03-25T03:00:00:Z","depth":0,"parameterNumber":2,"parameterNumberName":"U-component_of_WINDS"},"data":[0,0,0,-3.0887,-3.0895,-3.1284,-3.1286,-3.1765,-3.1769,0,0,0,0,0,0,0,0,0,0,0,-3.0752,-3.0755,-3.0887,-3.0896,-3.1284,-3.1286,-3.1764,-3.1769,0,0,0,0,0,0,0,0,0,0,0,-3.0751,-3.0754,-3.0757,-3.0897,-3.1283,-3.1286,-3.1763,-3.1479,0,0,0,0,0,0,0,0,0,0,-3.1105,-3.0959,-3.0753,-3.0757,-3.0899,-3.1283,-3.1286,-3.1466,-3.1497,-3.1579,0,-3.1638,0,-3.171,-3.1799,-3.1801,0,0,0,-3.0913,-3.0932,-3.1054,-3.0757,-3.0903,-3.1282,-3.1114,-3.1483,-3.1518,-3.162,-3.1645,-3.1664,-3.1718,-3.1802,-3.1804,-3.2198,-3.2199,0,0,-3.0892,-3.0813,-3.103,-3.1076,-3.1004,-3.1101,-3.1125,-3.1505,-3.1531,-3.1647,-3.1675,-3.1726,-3.1805,-3.1809,-3.2197,-3.2199,0,0,0,-3.0818,-3.0798,-3.0911,-3.1055,-3.1126,-3.1112,-3.114,-3.1514,-3.1557,-3.1681,-3.1732,-3.1808,-3.1813,-3.2196,-3.2198,-3.2166,0,0,0,-3.0806,-3.0755,-3.0901,-3.0857,-3.1118,-3.1323,-3.114,-3.1531,-3.1576,-3.1729,-3.1808,-3.1818,-3.2195,-3.2197,-3.2165,-3.2165,0,0,0,-3.0734,-3.0747,-3.0795,-3.0852,-3.1015,-3.1319,-3.1384,-3.1542,-3.1607,-3.1801,-3.1819,-3.2195,-3.2197,-3.2164,-3.2164,-3.2244,0,0,0,-3.0636,-3.0766,-3.0793,-3.096,-3.1011,-3.1294,-3.1382,-3.16,-3.1763,-3.181,-3.2195,-3.2198,-3.2163,-3.2162,-3.2242,-3.2295,-3.2309,0,0,-3.0757,-3.0778,-3.0883,-3.0918,-3.1174,-3.1241,-3.1499,-3.1727,-3.1823,-3.207,-3.2081,-3.2165,-3.2163,-3.2244,-3.2425,-3.2435,0,0,0,-3.0895,-3.0968,-3.1054,-3.12,-3.1373,-3.1524,-3.172,-3.1806,-3.2018,-3.193,-3.2221,-3.2222,-3.2273,-3.2302,-3.2311,-3.236,-3.2208,-3.2208,-3.2208,-3.0952,-3.1061,-3.1242,-3.1398,-3.1541,-3.1742,-3.1871,-3.2022,-3.2096,-3.2163,-3.2236,-3.2331,-3.2362,-3.237,-3.2419,-3.2275,-3.2275,-3.2275,-3.2275,-3.1138,-3.1258,-3.135,-3.1556,-3.1674,-3.1854,-3.2056,-3.2102,-3.2291,-3.2285,-3.2336,-3.2316,-3.2378,-3.2427,-3.2274,-3.2274,-3.2274,-3.2275,-3.2275,-3.1185,-3.1261,-3.1359,-3.1583,-3.1747,-3.1907,-3.2082,-3.2187,-3.2288,-3.2338,-3.2427,-3.2428,-3.244,-3.2373,-3.2373,-3.2374,-3.2374,-3.2374,-3.2375,-3.1193,-3.1305,-3.1434,-3.1628,-3.1737,-3.1896,-3.2102,-3.2216,-3.237,-3.2434,-3.2435,-3.2502,-3.2363,-3.2323,-3.238,-3.2379,-3.2378,-3.2378,-3.2377,-3.1335,-3.132,-3.1518,-3.1627,-3.1867,-3.2023,-3.2155,-3.2379,-3.249,-3.2574,-3.2633,-3.2512,-3.2544,-3.2538,-3.2506,-3.2607,-3.2607,-3.2607,-3.2607,-3.1373,-3.1398,-3.1625,-3.1792,-3.197,-3.2109,-3.234,-3.2505,-3.2675,-3.2752,-3.2754,-3.2723,-3.2711,-3.275,-3.2739,-3.2711,-3.2862,-3.2862,-3.2863,-3.1466,-3.1513,-3.1683,-3.184,-3.2036,-3.2205,-3.2425,-3.2622,-3.2814,-3.2875,-3.2815,-3.2804,-3.2755,-3.2733,-3.2787,-3.2768,-3.2719,0,0]},{"header":{"parameterUnit":"m.s-1","parameterCategory":1,"la1":30.2992,"la2":30.254,"lo1":-89.0895,"lo2":-89.0443,"dy":0.0025,"dx":0.0025,"nx":19,"ny":19,"refTime":"2026-03-25T03:00:00:Z","depth":0,"parameterNumber":3,"parameterNumberName":"V-component_of_WINDS"},"data":[0,0,0,1.7417,1.7419,1.7538,1.7539,1.7678,1.7679,0,0,0,0,0,0,0,0,0,0,0,1.7371,1.7371,1.7417,1.742,1.7538,1.7539,1.7678,1.7679,0,0,0,0,0,0,0,0,0,0,0,1.7371,1.7371,1.7372,1.742,1.7538,1.7539,1.7678,1.7593,0,0,0,0,0,0,0,0,0,0,1.748,1.7426,1.7371,1.7372,1.7421,1.7538,1.7539,1.7589,1.7599,1.7618,0,1.7629,0,1.7656,1.7687,1.7688,0,0,0,1.7428,1.7418,1.746,1.7372,1.7421,1.7538,1.7487,1.7595,1.7605,1.763,1.7631,1.7637,1.7658,1.7688,1.7689,1.7763,1.7763,0,0,1.7422,1.7387,1.7453,1.7466,1.7444,1.7483,1.7491,1.7601,1.7602,1.7632,1.7641,1.7661,1.7689,1.769,1.7763,1.7763,0,0,0,1.7397,1.7382,1.7422,1.746,1.7482,1.7487,1.7495,1.7597,1.7613,1.7642,1.7662,1.769,1.7691,1.7764,1.7763,1.7725,0,0,0,1.7393,1.7368,1.7418,1.7398,1.748,1.754,1.7488,1.7605,1.7618,1.7662,1.769,1.7692,1.7764,1.7763,1.7726,1.7713,0,0,0,1.7367,1.7365,1.7378,1.7396,1.7445,1.7539,1.7562,1.7609,1.763,1.7688,1.7693,1.7764,1.7764,1.7727,1.7715,1.7722,0,0,0,1.7329,1.7343,1.7377,1.74,1.7444,1.7514,1.7561,1.7616,1.766,1.769,1.7764,1.7763,1.7728,1.7716,1.7723,1.7721,1.7717,0,0,1.7327,1.7341,1.7358,1.7392,1.7446,1.7498,1.7549,1.7624,1.7663,1.7729,1.7731,1.7726,1.7715,1.7722,1.7707,1.7703,0,0,0,1.7346,1.7357,1.7379,1.7419,1.7475,1.7523,1.7594,1.7623,1.768,1.7688,1.7732,1.7726,1.7732,1.7733,1.773,1.7737,1.7762,1.7762,1.7762,1.7293,1.734,1.7371,1.7433,1.7471,1.7544,1.7581,1.7632,1.767,1.7679,1.7699,1.7683,1.7683,1.7681,1.7688,1.7702,1.7702,1.7702,1.7702,1.7294,1.7318,1.7367,1.7415,1.7466,1.7507,1.758,1.7605,1.7653,1.7672,1.768,1.7697,1.7675,1.7685,1.7699,1.77,1.77,1.77,1.77,1.7265,1.7284,1.7317,1.738,1.7423,1.7487,1.753,1.7576,1.762,1.7627,1.7653,1.7654,1.7661,1.7636,1.7636,1.7636,1.7636,1.7636,1.7636,1.722,1.7259,1.7288,1.7349,1.7381,1.7429,1.7504,1.7538,1.7587,1.7617,1.7618,1.7655,1.7664,1.7665,1.7636,1.7636,1.7636,1.7636,1.7636,1.7203,1.7214,1.7259,1.7291,1.7367,1.7408,1.7466,1.7532,1.7567,1.7587,1.7624,1.7622,1.7641,1.7644,1.7645,1.7612,1.7612,1.7612,1.7612,1.7178,1.7191,1.7248,1.7296,1.7348,1.7405,1.7458,1.7517,1.758,1.7606,1.7618,1.7623,1.7624,1.7643,1.7645,1.7647,1.7616,1.7616,1.7616,1.717,1.7191,1.7224,1.7284,1.7348,1.7402,1.7453,1.7509,1.7584,1.7617,1.7627,1.7627,1.7637,1.7637,1.7669,1.7672,1.7677,0,0]}]]